Weather History for TGPY - April, 2013

Change the Weather History Date:

Saturday, April 27, 2013

  Actual Average Record
Temperature  
Mean Temperature 78 °F -  
Max Temperature 83 °F 85 °F 87 °F (1998)
Min Temperature 73 °F 77 °F 73 °F (2013)
Cooling Degree Days 13    
Growing Degree Days 28 (Base 50)    
Moisture  
Dew Point 75 °F    
Average Humidity 89    
Maximum Humidity 100    
Minimum Humidity 69    
Precipitation  
Precipitation 0.16 in - - ()
Sea Level Pressure  
Sea Level Pressure 29.91 in    
Wind  
Wind Speed 10 mph ()    
Max Wind Speed 16 mph    
Max Gust Speed -    
Visibility 7.1 miles    
Events Rain    
Averages and records for this station are not official NWS values.
T = Trace of Precipitation, MM = Missing Value Source: Averaged Metar Reports

Daily Weather History Graph

Daily Weather History Graph

Search for Another Location

Airport or City:

Trip Planner

Search our weather history database for the weather conditions in past years. The results will help you decide how hot, cold, wet, or windy it might be!

Date:

Astronomy

Apr. 27, 2013 Rise Set
Actual Time 5:49 AM AST 6:20 PM AST
Civil Twilight 5:27 AM AST 6:42 PM AST
Nautical Twilight 5:01 AM AST 7:07 PM AST
Astronomical Twilight 4:35 AM AST 7:33 PM AST
Moon 8:26 PM AST (4/27) 7:18 AM AST (4/27)
Length of Visible Light 13h 15m
Length of Day
12h 31m
Waning Gibbous, 95% of the Moon is Illuminated
Apr 27
Waning Gibbous
May 2
Last Quarter
May 9
New
May 18
First Quarter
May 25
Full

Hourly Weather History & Observations

Time (AST) Temp. Heat Index Dew Point Humidity Pressure Visibility Wind Dir Wind Speed Gust Speed Precip Events Conditions
12:00 AM 80.6 °F 85.4 °F 73.4 °F 79% 29.95 in 6.2 mi East 8.1 mph - N/A   Mostly Cloudy
1:00 AM 75.2 °F - 75.2 °F 100% 29.92 in 5.6 mi East 9.2 mph - N/A Rain Rain
2:00 AM 76 °F - 74 °F 90% 29.91 in 12 mi East 15.0 mph - - Rain Light Rain
2:00 AM 75.2 °F - 73.4 °F 94% 29.89 in 6.2 mi East 15.0 mph - N/A   Mostly Cloudy
3:00 AM 75.2 °F - 75.2 °F 100% 29.89 in 6.2 mi East 13.8 mph - N/A   Mostly Cloudy
4:00 AM 75.2 °F - 73.4 °F 94% 29.89 in 6.2 mi ESE 13.8 mph - N/A   Mostly Cloudy
5:00 AM 75 °F - 74 °F 96% 29.91 in 6 mi East 9.2 mph - - Rain Light Rain Showers
5:00 AM 75.2 °F - 73.4 °F 94% 29.89 in 6.2 mi East 9.2 mph - N/A   Mostly Cloudy
6:00 AM 75.2 °F - 73.4 °F 94% 29.89 in 6.2 mi East 5.8 mph - N/A Rain Light Rain
7:00 AM 77.0 °F - 75.2 °F 94% 29.92 in 6.2 mi ESE 5.8 mph - N/A   Mostly Cloudy
8:00 AM 77 °F - 75 °F 93% 29.93 in 9 mi East 6.9 mph - - Rain Light Rain
8:00 AM 77.0 °F - 75.2 °F 94% 29.92 in 6.2 mi East 9.2 mph - N/A Rain Light Rain
9:00 AM 77.0 °F - 75.2 °F 94% 29.92 in 6.2 mi ESE 11.5 mph - N/A Rain Light Rain
10:00 AM 78.8 °F - 75.2 °F 89% 29.95 in 6.2 mi ESE 10.4 mph - N/A   Mostly Cloudy
11:00 AM 80 °F - 76 °F 83% 29.95 in 7 mi ESE 9.2 mph - - Rain Light Rain Showers
11:00 AM 80.6 °F 86.2 °F 75.2 °F 84% 29.95 in 6.2 mi ESE 9.2 mph - N/A Rain Light Rain Showers
12:00 PM 80.6 °F 86.2 °F 75.2 °F 84% 29.95 in 6.2 mi ESE 11.5 mph - N/A   Mostly Cloudy
1:00 PM 82.4 °F 88.2 °F 73.4 °F 74% 29.92 in 6.2 mi ESE 15.0 mph - N/A   Mostly Cloudy
2:00 PM 82 °F - 73 °F 69% 29.90 in 14 mi ESE 15.0 mph - - Rain Light Rain Showers
2:00 PM 82.4 °F 88.2 °F 73.4 °F 74% 29.89 in 6.2 mi ESE 15.0 mph - N/A Rain Light Rain Showers
3:00 PM 78.8 °F - 75.2 °F 89% 29.86 in 6.2 mi SE 16.1 mph - N/A   Mostly Cloudy
4:00 PM 80.6 °F 86.2 °F 75.2 °F 84% 29.86 in 6.2 mi ESE 12.7 mph - N/A   Mostly Cloudy
5:00 PM 80 °F - 74 °F 79% 29.87 in 12 mi ESE 13.8 mph - -   Mostly Cloudy
5:00 PM 80.6 °F 86.2 °F 75.2 °F 84% 29.86 in 6.2 mi ESE 13.8 mph - N/A   Mostly Cloudy
6:00 PM 78.8 °F - 75.2 °F 89% 29.86 in 6.2 mi East 10.4 mph - N/A   Mostly Cloudy
7:00 PM - - - N/A% 29.89 in 6.2 mi ESE 9.2 mph - N/A Rain Light Rain Showers
8:00 PM 78 °F - 76 °F 91% 29.91 in 7 mi ESE 10.4 mph - - Rain Light Rain Showers
8:00 PM 78.8 °F - 75.2 °F 89% 29.89 in 6.2 mi ESE 10.4 mph - N/A Rain Light Rain Showers
9:00 PM 77.0 °F - 75.2 °F 94% 29.92 in 6.2 mi ESE 11.5 mph - N/A   Scattered Clouds
10:00 PM 77.0 °F - 73.4 °F 89% 29.92 in 6.2 mi East 13.8 mph - N/A   Mostly Cloudy
11:00 PM 77 °F - 74 °F 89% 29.93 in 12 mi ESE 11.5 mph - -   Widespread Dust
11:00 PM 77.0 °F - 75.2 °F 94% 29.92 in 6.2 mi ESE 11.5 mph - N/A   Mostly Cloudy